2023/04/01 23:32:42+0000,-33.39,-46.82,-39.54,-43.15,-50.37,-50.70
2023/04/01 23:33:34+0000,-32.58,-46.01,-38.26,-44.70,-49.95,-49.92
2023/04/01 23:34:26+0000,-33.40,-46.17,-39.30,-43.40,-49.63,-51.40
2023/04/01 23:35:18+0000,-33.08,-46.40,-38.46,-43.02,-49.60,-51.83
2023/04/01 23:36:10+0000,-33.09,-47.06,-37.98,-44.83,-50.28,-51.21
2023/04/01 23:37:02+0000,-33.48,-45.89,-38.35,-44.60,-50.69,-52.16
2023/04/01 23:37:54+0000,-33.40,-47.76,-37.97,-43.39,-49.13,-52.03
2023/04/01 23:38:46+0000,-32.55,-46.83,-38.30,-45.56,-51.12,-53.28
2023/04/01 23:39:38+0000,-32.19,-46.44,-38.53,-43.82,-49.68,-51.84
2023/04/01 23:40:30+0000,-32.69,-47.64,-38.48,-43.05,-49.38,-52.85
2023/04/01 23:41:30+0000,-32.66,-47.07,-38.76,-44.17,-50.63,-52.66
2023/04/01 23:42:22+0000,-33.22,-46.93,-38.28,-42.52,-50.12,-53.00
2023/04/01 23:43:14+0000,-32.43,-46.79,-38.64,-43.27,-50.32,-52.64
2023/04/01 23:44:06+0000,-33.29,-46.72,-36.14,-43.53,-49.83,-52.16
2023/04/01 23:44:58+0000,-32.28,-47.26,-38.44,-39.82,-49.65,-52.11
2023/04/01 23:45:50+0000,-33.91,-46.58,-39.15,-41.65,-50.10,-52.78
2023/04/01 23:46:42+0000,-33.30,-45.71,-38.06,-40.68,-50.85,-50.64
2023/04/01 23:47:34+0000,-32.88,-46.58,-38.51,-40.10,-50.42,-52.91
2023/04/01 23:48:26+0000,-33.09,-47.12,-38.69,-40.45,-50.86,-52.34
2023/04/01 23:49:18+0000,-33.66,-46.64,-38.93,-41.41,-50.04,-52.85
2023/04/01 23:50:10+0000,-33.92,-46.91,-38.48,-40.98,-49.21,-52.84
2023/04/01 23:51:08+0000,-33.55,-45.23,-38.85,-44.11,-46.90,-53.09
2023/04/01 23:52:00+0000,-32.84,-45.82,-39.13,-42.81,-49.19,-51.87
2023/04/01 23:52:52+0000,-33.45,-46.27,-39.28,-42.71,-50.22,-52.89
2023/04/01 23:53:44+0000,-34.52,-46.54,-39.76,-42.61,-49.98,-52.66
2023/04/01 23:54:37+0000,-33.69,-46.27,-38.41,-42.73,-49.66,-52.75
2023/04/01 23:55:29+0000,-33.85,-46.69,-38.82,-45.01,-50.72,-52.80
2023/04/01 23:56:21+0000,-33.46,-46.69,-39.09,-44.74,-49.58,-50.93
2023/04/01 23:57:13+0000,-32.98,-47.11,-39.14,-41.45,-50.93,-51.69
2023/04/01 23:58:05+0000,-33.20,-46.69,-38.89,-41.36,-48.92,-52.40
2023/04/01 23:58:57+0000,-34.21,-46.68,-38.89,-41.43,-50.34,-50.55
2023/04/01 23:59:49+0000,-33.92,-46.43,-38.72,-41.51,-49.63,-52.63
2023/04/02 00:00:45+0000,-32.85,-46.57,-38.79,-40.94,-49.84,-52.07
2023/04/02 00:01:45+0000,-33.63,-46.56,-38.89,-39.66,-50.01,-51.54
2023/04/02 00:02:37+0000,-33.82,-46.95,-38.38,-40.60,-49.09,-50.81
2023/04/02 00:03:29+0000,-33.48,-47.51,-39.15,-40.97,-49.49,-52.10
2023/04/02 00:04:21+0000,-34.09,-47.02,-37.08,-41.74,-49.48,-52.01
2023/04/02 00:05:13+0000,-33.39,-47.05,-38.59,-40.93,-49.41,-51.28
2023/04/02 00:06:05+0000,-32.66,-47.10,-38.01,-41.71,-49.89,-51.39
2023/04/02 00:06:57+0000,-33.41,-46.67,-38.31,-41.68,-49.81,-51.81
2023/04/02 00:07:49+0000,-32.95,-47.09,-27.56,-41.66,-49.69,-51.98
2023/04/02 00:08:41+0000,-34.14,-46.75,-38.13,-42.34,-50.03,-51.54
2023/04/02 00:09:33+0000,-33.07,-46.22,-37.77,-42.44,-49.00,-50.94
2023/04/02 00:10:25+0000,-33.63,-46.56,-38.51,-41.57,-50.33,-52.53
2023/04/02 00:11:24+0000,-33.26,-47.43,-38.65,-41.13,-48.49,-51.85
2023/04/02 00:12:16+0000,-33.59,-46.98,-38.84,-42.88,-48.95,-52.09
2023/04/02 00:13:08+0000,-33.38,-46.62,-37.79,-43.44,-48.92,-51.99
2023/04/02 00:14:00+0000,-33.18,-46.73,-38.18,-43.34,-48.85,-52.00
2023/04/02 00:14:52+0000,-33.84,-47.07,-38.38,-41.89,-48.80,-52.62
2023/04/02 00:15:44+0000,-33.11,-47.23,-38.49,-41.09,-48.57,-51.85
2023/04/02 00:16:36+0000,-33.02,-46.39,-37.40,-40.70,-48.47,-51.74
2023/04/02 00:17:28+0000,-33.49,-48.29,-38.91,-39.50,-49.89,-52.29
2023/04/02 00:18:20+0000,-34.06,-47.25,-38.34,-40.49,-49.25,-52.03
2023/04/02 00:19:12+0000,-33.97,-48.11,-39.12,-39.42,-49.39,-51.73
2023/04/02 00:20:04+0000,-33.35,-47.24,-38.05,-40.31,-48.11,-51.45
2023/04/02 00:21:04+0000,-34.05,-45.88,-38.23,-40.23,-47.97,-52.36
2023/04/02 00:21:56+0000,-34.01,-46.25,-38.80,-40.68,-49.86,-52.07
2023/04/02 00:22:48+0000,-34.07,-47.08,-39.37,-40.02,-48.50,-51.79
2023/04/02 00:23:40+0000,-34.26,-46.83,-39.06,-40.89,-49.53,-52.54
2023/04/02 00:24:32+0000,-33.50,-46.39,-38.61,-39.93,-48.33,-52.24
2023/04/02 00:25:24+0000,-33.58,-47.54,-39.07,-40.68,-48.94,-51.98
2023/04/02 00:26:16+0000,-33.38,-47.45,-39.52,-40.62,-49.15,-51.53
2023/04/02 00:27:08+0000,-33.72,-46.75,-39.41,-39.56,-50.09,-51.79
2023/04/02 00:28:00+0000,-33.29,-48.68,-38.98,-39.43,-49.38,-52.20
2023/04/02 00:28:52+0000,-33.82,-47.91,-38.54,-40.05,-50.02,-52.42
2023/04/02 00:29:44+0000,-33.28,-48.43,-38.94,-40.40,-49.65,-53.17
2023/04/02 00:30:36+0000,-34.20,-47.80,-38.06,-40.42,-47.95,-51.85
2023/04/02 00:31:35+0000,-34.07,-45.83,-38.37,-39.32,-47.90,-51.63
2023/04/02 00:32:27+0000,-33.51,-45.39,-39.46,-38.25,-48.80,-52.41
2023/04/02 00:33:19+0000,-33.97,-46.64,-39.06,-39.80,-49.42,-52.63
2023/04/02 00:34:11+0000,-34.08,-46.05,-37.91,-39.03,-50.06,-51.62
2023/04/02 00:35:03+0000,-34.27,-47.43,-38.87,-39.59,-49.73,-52.45
2023/04/02 00:35:55+0000,-32.71,-46.94,-39.39,-39.67,-49.36,-50.43
2023/04/02 00:36:47+0000,-33.87,-47.51,-39.36,-38.91,-48.55,-52.21
2023/04/02 00:37:39+0000,-33.60,-46.08,-37.39,-41.36,-49.03,-52.30
2023/04/02 00:38:31+0000,-34.10,-46.86,-38.51,-40.69,-48.91,-52.74
2023/04/02 00:39:23+0000,-34.06,-47.19,-38.83,-43.63,-48.61,-51.65
2023/04/02 00:40:15+0000,-33.54,-46.70,-38.74,-42.74,-49.55,-52.28
2023/04/02 00:41:13+0000,-34.60,-45.96,-39.44,-43.08,-48.54,-51.80
2023/04/02 00:42:05+0000,-34.06,-45.46,-38.21,-43.55,-48.67,-51.60
2023/04/02 00:42:57+0000,-33.61,-45.50,-39.05,-42.03,-48.92,-51.58
2023/04/02 00:43:49+0000,-33.87,-46.33,-39.04,-43.11,-49.02,-51.21
2023/04/02 00:44:42+0000,-33.59,-45.30,-37.79,-42.68,-49.52,-52.07
2023/04/02 00:45:34+0000,-33.28,-46.40,-38.10,-42.62,-48.83,-51.47
2023/04/02 00:46:26+0000,-34.19,-47.64,-40.00,-41.49,-49.38,-51.32
2023/04/02 00:47:18+0000,-33.71,-47.10,-40.25,-42.89,-49.23,-52.52
2023/04/02 00:48:10+0000,-33.80,-46.66,-38.61,-43.31,-49.20,-51.80
2023/04/02 00:49:02+0000,-33.51,-45.62,-38.35,-41.72,-49.07,-52.09
2023/04/02 00:49:54+0000,-34.01,-46.87,-39.61,-42.98,-49.72,-52.38
2023/04/02 00:50:46+0000,-34.23,-46.20,-39.05,-43.61,-49.32,-52.02
2023/04/02 00:51:44+0000,-34.32,-46.49,-39.05,-42.99,-49.64,-50.88
2023/04/02 00:52:36+0000,-34.56,-45.87,-37.58,-43.08,-48.73,-51.04
2023/04/02 00:53:28+0000,-33.46,-45.64,-38.43,-43.38,-49.80,-52.54
2023/04/02 00:54:20+0000,-33.89,-45.39,-38.61,-43.13,-48.80,-52.59
2023/04/02 00:55:12+0000,-33.95,-44.74,-37.75,-42.90,-49.72,-52.56
2023/04/02 00:56:04+0000,-33.84,-45.66,-38.27,-43.65,-49.48,-52.23
2023/04/02 00:56:56+0000,-33.76,-44.99,-39.43,-42.07,-49.12,-52.78
2023/04/02 00:57:48+0000,-34.28,-44.57,-38.99,-40.45,-48.05,-52.67
2023/04/02 00:58:40+0000,-33.83,-44.24,-37.79,-40.63,-47.76,-48.82
2023/04/02 00:59:32+0000,-33.96,-44.70,-39.06,-43.25,-48.62,-53.06
2023/04/02 01:00:25+0000,-34.13,-45.74,-35.92,-43.56,-46.71,-52.36
2023/04/02 01:01:24+0000,-28.73,-46.06,-36.97,-41.05,-48.06,-52.49
2023/04/02 01:02:16+0000,-27.66,-44.40,-37.21,-41.06,-48.49,-52.08
2023/04/02 01:03:08+0000,-26.35,-40.63,-36.41,-41.07,-47.02,-52.05
2023/04/02 01:04:00+0000,-26.98,-43.56,-38.29,-42.44,-48.87,-52.25
2023/04/02 01:04:52+0000,-33.38,-45.12,-39.72,-41.63,-48.54,-51.80
2023/04/02 01:05:44+0000,-34.09,-44.53,-38.97,-40.43,-48.27,-51.90
2023/04/02 01:06:36+0000,-34.08,-44.62,-37.78,-40.50,-47.75,-51.75
2023/04/02 01:07:28+0000,-33.83,-45.23,-38.93,-39.95,-47.90,-51.73
2023/04/02 01:08:20+0000,-33.61,-44.43,-38.69,-38.50,-48.14,-51.95
2023/04/02 01:09:12+0000,-33.81,-43.48,-38.76,-39.06,-48.61,-51.39
2023/04/02 01:10:04+0000,-33.87,-43.31,-38.28,-40.09,-48.53,-52.18
2023/04/02 01:11:04+0000,-34.42,-44.77,-38.03,-39.67,-48.69,-51.45
2023/04/02 01:11:56+0000,-33.57,-44.46,-39.02,-39.17,-48.26,-51.36
2023/04/02 01:12:48+0000,-34.15,-44.35,-38.51,-38.78,-47.97,-52.03
2023/04/02 01:13:40+0000,-33.47,-42.66,-38.53,-37.77,-48.55,-52.51
2023/04/02 01:14:32+0000,-33.92,-43.01,-38.34,-38.41,-48.55,-51.41
2023/04/02 01:15:24+0000,-33.85,-43.54,-38.58,-38.02,-48.91,-51.09
2023/04/02 01:16:16+0000,-33.56,-44.02,-38.61,-37.83,-48.87,-51.85
2023/04/02 01:17:08+0000,-34.03,-42.94,-38.31,-38.28,-49.42,-51.08
2023/04/02 01:18:00+0000,-34.26,-43.08,-37.88,-38.76,-49.10,-51.59
2023/04/02 01:18:52+0000,-33.89,-43.85,-37.24,-38.68,-49.69,-51.24
2023/04/02 01:19:44+0000,-33.75,-42.74,-38.49,-37.74,-48.79,-51.25
2023/04/02 01:20:36+0000,-33.57,-43.72,-39.42,-39.22,-48.54,-51.53
2023/04/02 01:21:34+0000,-33.68,-42.96,-38.60,-39.16,-49.03,-51.73
2023/04/02 01:22:26+0000,-34.47,-42.69,-39.42,-38.95,-49.92,-51.11
2023/04/02 01:23:19+0000,-34.18,-43.10,-38.29,-39.53,-49.17,-51.11
2023/04/02 01:24:11+0000,-34.33,-42.72,-39.56,-38.79,-48.94,-51.30
2023/04/02 01:25:03+0000,-33.63,-44.21,-39.75,-39.64,-48.87,-52.00
2023/04/02 01:25:55+0000,-33.56,-43.44,-39.14,-38.45,-49.24,-51.45
2023/04/02 01:26:47+0000,-34.33,-43.14,-38.51,-38.70,-49.18,-52.28
2023/04/02 01:27:39+0000,-34.56,-42.83,-39.56,-37.75,-49.13,-52.14
2023/04/02 01:28:31+0000,-34.13,-43.45,-39.24,-38.05,-48.39,-51.63
2023/04/02 01:29:23+0000,-33.71,-41.31,-38.84,-37.76,-48.99,-52.64
2023/04/02 01:30:15+0000,-33.55,-42.36,-38.57,-38.28,-49.08,-52.10
2023/04/02 01:31:15+0000,-33.75,-42.49,-38.15,-39.22,-48.77,-51.62
2023/04/02 01:32:07+0000,-33.30,-43.53,-39.71,-38.72,-48.17,-51.93
2023/04/02 01:32:59+0000,-33.96,-42.80,-39.64,-38.67,-48.52,-52.60
2023/04/02 01:33:51+0000,-33.84,-43.16,-38.49,-38.63,-48.34,-51.84
2023/04/02 01:34:43+0000,-34.36,-42.26,-39.83,-38.33,-49.32,-51.64
2023/04/02 01:35:36+0000,-34.19,-43.63,-39.02,-38.97,-48.21,-50.90
2023/04/02 01:36:28+0000,-32.87,-43.34,-39.23,-37.99,-48.68,-51.12
2023/04/02 01:37:20+0000,-34.38,-42.44,-38.56,-39.57,-48.90,-52.56
2023/04/02 01:38:12+0000,-34.99,-43.40,-39.00,-39.48,-49.64,-51.76
2023/04/02 01:39:04+0000,-34.11,-44.36,-38.99,-39.27,-49.18,-51.93
2023/04/02 01:39:56+0000,-33.39,-43.34,-38.41,-39.55,-49.80,-51.60
2023/04/02 01:40:48+0000,-33.93,-43.30,-38.83,-38.63,-49.35,-51.65
2023/04/02 01:41:46+0000,-33.30,-41.52,-38.55,-38.70,-48.95,-51.24
2023/04/02 01:42:38+0000,-34.00,-42.02,-38.57,-39.14,-49.09,-52.01
2023/04/02 01:43:30+0000,-34.21,-41.62,-39.47,-38.56,-48.36,-52.25
2023/04/02 01:44:22+0000,-34.32,-43.84,-39.21,-38.83,-49.33,-52.00
2023/04/02 01:45:14+0000,-34.34,-41.78,-38.34,-38.70,-49.29,-51.78
2023/04/02 01:46:06+0000,-33.87,-43.14,-39.17,-39.44,-48.75,-51.54
2023/04/02 01:46:59+0000,-33.85,-41.04,-39.27,-39.44,-49.58,-51.87
2023/04/02 01:47:51+0000,-33.58,-41.97,-38.48,-39.49,-48.78,-52.32
2023/04/02 01:48:43+0000,-34.49,-41.51,-38.83,-39.50,-48.89,-51.60
2023/04/02 01:49:35+0000,-33.31,-43.44,-38.64,-40.75,-48.83,-52.40
2023/04/02 01:50:27+0000,-33.72,-43.23,-39.08,-40.04,-49.24,-52.22
2023/04/02 01:51:25+0000,-33.81,-43.46,-38.88,-39.46,-49.12,-51.94
2023/04/02 01:52:17+0000,-33.92,-44.32,-39.21,-38.43,-49.22,-52.76
2023/04/02 01:53:09+0000,-33.22,-44.54,-38.76,-39.49,-48.86,-52.49
2023/04/02 01:54:01+0000,-33.72,-43.54,-39.33,-39.00,-48.62,-51.79
2023/04/02 01:54:53+0000,-33.59,-42.86,-38.63,-38.93,-48.31,-52.36
2023/04/02 01:55:45+0000,-33.29,-34.87,-36.94,-38.43,-47.83,-52.66
2023/04/02 01:56:37+0000,-32.60,-35.15,-38.79,-40.00,-46.76,-51.96
2023/04/02 01:57:29+0000,-31.48,-36.63,-39.15,-38.49,-47.09,-52.36
2023/04/02 01:58:21+0000,-31.82,-39.88,-37.97,-38.85,-47.88,-52.38
2023/04/02 01:59:13+0000,-29.88,-39.23,-38.57,-39.02,-47.85,-52.57
2023/04/02 02:00:06+0000,-29.59,-41.95,-37.73,-38.84,-47.85,-52.10
2023/04/02 02:01:05+0000,-29.28,-42.76,-37.41,-38.40,-47.92,-51.86
2023/04/02 02:01:57+0000,-28.85,-42.53,-38.20,-38.86,-47.99,-51.70
2023/04/02 02:02:49+0000,-28.54,-43.54,-36.96,-39.10,-48.41,-52.13
2023/04/02 02:03:41+0000,-28.91,-39.22,-36.60,-38.92,-48.87,-52.43
2023/04/02 02:04:33+0000,-29.45,-42.18,-36.34,-39.50,-48.18,-52.13
2023/04/02 02:05:26+0000,-29.36,-40.67,-36.62,-39.87,-48.34,-52.08
2023/04/02 02:06:18+0000,-28.50,-39.59,-37.04,-40.56,-48.31,-52.19
2023/04/02 02:07:10+0000,-29.77,-41.39,-36.67,-39.11,-48.07,-51.94
2023/04/02 02:08:02+0000,-29.55,-40.01,-36.39,-39.04,-47.71,-52.32
2023/04/02 02:08:54+0000,-29.73,-38.98,-35.48,-38.95,-48.88,-52.29
2023/04/02 02:09:46+0000,-29.20,-42.03,-35.66,-39.85,-48.69,-52.39
2023/04/02 02:10:38+0000,-28.92,-41.97,-36.47,-39.94,-48.47,-52.12
2023/04/02 02:11:36+0000,-29.09,-43.36,-36.17,-39.82,-48.20,-52.69
2023/04/02 02:12:28+0000,-29.04,-41.50,-36.44,-39.30,-48.34,-51.88
2023/04/02 02:13:20+0000,-29.69,-42.98,-36.64,-38.59,-48.35,-51.12
2023/04/02 02:14:12+0000,-29.27,-41.75,-37.13,-39.40,-48.52,-51.83
2023/04/02 02:15:04+0000,-29.70,-41.68,-36.67,-41.24,-47.83,-52.05
2023/04/02 02:15:56+0000,-30.21,-42.27,-37.99,-38.34,-47.87,-52.02
2023/04/02 02:16:48+0000,-29.79,-42.47,-37.57,-40.80,-47.69,-51.83
2023/04/02 02:17:40+0000,-29.70,-40.62,-36.42,-40.72,-48.12,-51.31
2023/04/02 02:18:32+0000,-30.34,-41.88,-36.33,-40.51,-47.45,-51.50
2023/04/02 02:19:24+0000,-29.79,-43.16,-37.14,-40.50,-48.62,-51.17
2023/04/02 02:20:17+0000,-29.69,-43.01,-37.27,-40.46,-47.76,-51.48
2023/04/02 02:21:16+0000,-29.99,-42.63,-37.02,-40.41,-47.45,-51.77
2023/04/02 02:22:08+0000,-29.92,-43.00,-36.77,-40.74,-48.03,-51.64
2023/04/02 02:23:00+0000,-29.53,-42.08,-36.30,-40.98,-48.53,-52.12
2023/04/02 02:23:52+0000,-29.65,-43.17,-37.47,-40.78,-47.83,-51.57
2023/04/02 02:24:44+0000,-29.87,-42.42,-37.49,-40.40,-47.24,-51.10
2023/04/02 02:25:36+0000,-29.76,-42.90,-37.78,-40.99,-47.48,-48.75
2023/04/02 02:26:28+0000,-30.39,-42.16,-37.37,-39.80,-47.01,-48.74
2023/04/02 02:27:20+0000,-30.08,-41.22,-37.64,-40.59,-46.79,-48.17
2023/04/02 02:28:12+0000,-30.14,-40.91,-37.21,-40.82,-46.88,-48.52
2023/04/02 02:29:04+0000,-30.35,-42.15,-37.65,-41.55,-46.79,-48.64
2023/04/02 02:29:56+0000,-30.14,-41.39,-37.22,-40.16,-46.92,-48.60
2023/04/02 02:30:48+0000,-30.33,-42.55,-37.12,-42.09,-47.90,-49.02
2023/04/02 02:31:47+0000,-29.38,-42.31,-37.03,-40.42,-47.35,-48.53
2023/04/02 02:32:39+0000,-29.89,-42.12,-36.58,-40.41,-46.09,-49.19
2023/04/02 02:33:31+0000,-29.38,-42.31,-37.17,-40.43,-45.76,-48.39
2023/04/02 02:34:23+0000,-30.05,-42.81,-36.70,-39.43,-47.44,-48.56
2023/04/02 02:35:15+0000,-29.76,-41.25,-37.96,-39.69,-47.67,-48.49
2023/04/02 02:36:07+0000,-28.38,-43.37,-36.73,-39.13,-46.40,-48.16
2023/04/02 02:36:59+0000,-27.83,-41.63,-37.46,-39.27,-45.94,-48.64
2023/04/02 02:37:51+0000,-28.91,-43.07,-38.04,-39.63,-47.41,-48.55
2023/04/02 02:38:43+0000,-28.26,-42.09,-37.42,-39.36,-47.30,-48.70
2023/04/02 02:39:35+0000,-28.24,-41.94,-35.91,-40.82,-47.14,-48.60
2023/04/02 02:40:27+0000,-28.43,-42.08,-37.02,-38.87,-47.11,-48.30
2023/04/02 02:41:26+0000,-27.75,-42.24,-37.08,-40.08,-47.66,-48.38
2023/04/02 02:42:19+0000,-27.57,-41.62,-37.09,-39.20,-47.96,-48.98
2023/04/02 02:43:11+0000,-28.28,-42.57,-37.52,-39.19,-47.72,-49.01
2023/04/02 02:44:03+0000,-29.27,-41.74,-37.60,-38.90,-47.49,-49.28
2023/04/02 02:44:55+0000,-26.58,-42.00,-36.60,-40.35,-47.55,-48.75
2023/04/02 02:45:47+0000,-27.63,-39.54,-36.72,-39.90,-46.99,-48.54
2023/04/02 02:46:39+0000,-27.55,-40.88,-36.75,-39.46,-47.55,-49.06
2023/04/02 02:47:31+0000,-28.60,-42.89,-37.33,-39.71,-48.12,-49.29
2023/04/02 02:48:23+0000,-26.75,-43.88,-36.81,-39.36,-46.83,-48.89
2023/04/02 02:49:15+0000,-27.22,-41.52,-37.92,-38.52,-47.13,-48.77
2023/04/02 02:50:07+0000,-27.76,-43.11,-37.10,-40.42,-47.56,-48.90
2023/04/02 02:51:06+0000,-27.53,-42.96,-36.76,-40.99,-47.42,-48.85
2023/04/02 02:51:58+0000,-26.09,-41.95,-37.74,-40.06,-46.82,-48.99
2023/04/02 02:52:50+0000,-25.94,-40.38,-37.65,-40.55,-47.10,-48.86
2023/04/02 02:53:43+0000,-27.23,-40.45,-37.31,-38.98,-47.57,-48.12
2023/04/02 02:54:35+0000,-26.96,-41.69,-37.99,-40.40,-46.95,-48.42
2023/04/02 02:55:27+0000,-24.64,-42.46,-37.27,-39.75,-47.25,-49.56
2023/04/02 02:56:19+0000,-24.59,-40.87,-38.27,-39.65,-47.85,-48.64
2023/04/02 02:57:11+0000,-25.28,-40.96,-35.17,-39.58,-46.68,-43.10
2023/04/02 02:58:03+0000,-27.43,-42.28,-35.98,-39.60,-47.13,-48.99
2023/04/02 02:58:55+0000,-25.23,-41.72,-37.09,-38.67,-46.78,-48.59
2023/04/02 02:59:47+0000,-26.14,-41.38,-36.93,-39.34,-46.99,-48.86
2023/04/02 03:00:39+0000,-26.25,-41.31,-37.08,-39.33,-47.10,-48.71
2023/04/02 03:01:38+0000,-27.13,-41.97,-36.72,-37.86,-47.36,-48.70
2023/04/02 03:02:30+0000,-26.71,-42.18,-38.12,-38.66,-47.22,-49.15
2023/04/02 03:03:22+0000,-26.36,-42.34,-37.68,-39.85,-47.28,-48.67
2023/04/02 03:04:14+0000,-27.00,-40.93,-38.22,-39.69,-47.08,-48.73
2023/04/02 03:05:06+0000,-27.22,-42.98,-37.81,-39.20,-47.47,-49.77
2023/04/02 03:05:58+0000,-27.13,-42.31,-39.16,-39.55,-47.42,-48.54
2023/04/02 03:06:50+0000,-26.70,-42.53,-38.24,-39.11,-47.39,-48.91
2023/04/02 03:07:42+0000,-27.33,-40.31,-38.83,-38.54,-46.89,-48.50
2023/04/02 03:08:34+0000,-26.86,-41.24,-36.52,-40.37,-47.13,-48.82
2023/04/02 03:09:27+0000,-26.42,-42.04,-36.54,-38.98,-47.44,-48.65
2023/04/02 03:10:19+0000,-26.53,-39.86,-37.22,-39.75,-47.23,-49.13
2023/04/02 03:11:18+0000,-25.28,-40.71,-37.80,-40.02,-47.30,-48.54
2023/04/02 03:12:10+0000,-27.46,-38.41,-37.63,-39.06,-45.66,-48.24
2023/04/02 03:13:02+0000,-27.65,-41.62,-37.88,-38.58,-45.80,-48.20
2023/04/02 03:13:54+0000,-26.94,-41.16,-38.58,-39.74,-45.32,-48.67
2023/04/02 03:14:46+0000,-25.91,-38.42,-37.86,-38.62,-45.19,-48.07
2023/04/02 03:15:38+0000,-27.10,-40.19,-38.28,-39.25,-46.15,-48.58
2023/04/02 03:16:30+0000,-27.96,-40.90,-37.85,-38.42,-46.32,-48.37
2023/04/02 03:17:22+0000,-25.79,-41.49,-38.93,-39.19,-45.76,-48.24
2023/04/02 03:18:14+0000,-27.52,-40.78,-39.44,-39.94,-45.41,-48.55
2023/04/02 03:19:06+0000,-27.65,-41.28,-37.99,-40.06,-46.07,-48.34
2023/04/02 03:19:58+0000,-27.20,-40.68,-38.90,-38.85,-46.29,-48.27
2023/04/02 03:20:50+0000,-27.97,-40.43,-37.69,-39.44,-45.58,-47.52
2023/04/02 03:21:49+0000,-27.24,-40.80,-38.10,-40.36,-46.22,-48.13
2023/04/02 03:22:41+0000,-27.58,-40.93,-37.48,-39.37,-45.40,-49.03
2023/04/02 03:23:33+0000,-28.42,-41.25,-36.38,-39.94,-45.47,-48.85
2023/04/02 03:24:25+0000,-27.62,-40.84,-37.93,-38.65,-46.15,-48.33
2023/04/02 03:25:17+0000,-27.51,-41.07,-38.93,-39.78,-45.74,-47.87
2023/04/02 03:26:09+0000,-31.22,-41.39,-37.40,-39.24,-45.69,-48.05
2023/04/02 03:27:01+0000,-30.91,-43.51,-38.26,-38.32,-46.09,-48.20
2023/04/02 03:27:53+0000,-30.25,-41.70,-37.45,-39.28,-45.26,-48.59
2023/04/02 03:28:45+0000,-30.64,-41.62,-37.37,-39.64,-45.23,-47.71
2023/04/02 03:29:38+0000,-30.95,-42.52,-38.86,-40.34,-45.70,-47.70
2023/04/02 03:30:30+0000,-28.19,-39.83,-38.38,-39.08,-45.76,-47.74
2023/04/02 03:31:29+0000,-29.03,-40.52,-39.33,-40.04,-46.23,-47.93
2023/04/02 03:32:22+0000,-26.82,-41.13,-37.68,-38.48,-45.49,-48.31
2023/04/02 03:33:14+0000,-28.41,-39.97,-39.32,-40.27,-45.78,-48.17
2023/04/02 03:34:06+0000,-27.71,-39.92,-37.74,-40.46,-45.65,-48.36
2023/04/02 03:34:58+0000,-27.64,-40.03,-39.16,-38.86,-45.77,-48.08
2023/04/02 03:35:50+0000,-26.52,-39.12,-37.37,-40.36,-45.26,-48.14
2023/04/02 03:36:42+0000,-27.74,-39.72,-38.58,-38.81,-45.50,-48.64
2023/04/02 03:37:34+0000,-28.58,-39.73,-37.99,-39.15,-45.26,-47.78
2023/04/02 03:38:26+0000,-27.02,-40.94,-38.33,-39.20,-45.10,-47.33
2023/04/02 03:39:18+0000,-26.89,-39.15,-38.09,-39.08,-45.76,-47.80
2023/04/02 03:40:10+0000,-27.82,-39.40,-37.65,-38.83,-46.22,-47.91
2023/04/02 03:41:09+0000,-28.50,-38.63,-38.18,-38.86,-46.00,-48.05
2023/04/02 03:42:01+0000,-28.95,-39.87,-38.64,-39.01,-45.53,-48.03
2023/04/02 03:42:53+0000,-27.52,-40.19,-39.18,-39.77,-45.66,-48.19
2023/04/02 03:43:45+0000,-28.82,-40.01,-38.41,-39.91,-45.71,-48.09
2023/04/02 03:44:38+0000,-28.26,-40.85,-38.29,-39.05,-46.60,-48.30
2023/04/02 03:45:30+0000,-27.27,-39.63,-39.28,-39.93,-45.50,-47.88
2023/04/02 03:46:22+0000,-27.13,-40.80,-37.46,-39.04,-45.58,-48.42
2023/04/02 03:47:14+0000,-28.78,-39.17,-38.88,-39.21,-46.71,-47.70
2023/04/02 03:48:06+0000,-29.41,-38.66,-38.45,-40.14,-46.26,-47.99
2023/04/02 03:48:58+0000,-27.22,-39.31,-39.25,-39.08,-45.38,-48.28
2023/04/02 03:49:50+0000,-27.13,-39.62,-37.52,-39.47,-46.67,-47.74
2023/04/02 03:50:42+0000,-28.66,-39.11,-38.08,-39.31,-46.07,-48.39
2023/04/02 03:51:41+0000,-29.21,-38.08,-37.10,-38.85,-46.43,-47.91
2023/04/02 03:52:33+0000,-28.69,-39.63,-37.24,-39.01,-45.83,-48.62
2023/04/02 03:53:25+0000,-27.42,-39.41,-37.83,-39.62,-45.95,-48.24
2023/04/02 03:54:17+0000,-29.02,-38.41,-38.31,-38.04,-46.27,-47.47
2023/04/02 03:55:09+0000,-29.12,-39.02,-37.79,-38.55,-46.38,-48.28
2023/04/02 03:56:01+0000,-29.68,-38.96,-38.88,-37.67,-46.72,-47.94
2023/04/02 03:56:53+0000,-29.26,-39.51,-38.05,-38.69,-46.97,-48.66
2023/04/02 03:57:45+0000,-28.95,-39.22,-38.15,-38.49,-45.33,-48.05
2023/04/02 03:58:37+0000,-28.99,-39.44,-38.13,-39.20,-46.50,-48.65
2023/04/02 03:59:29+0000,-28.71,-38.70,-39.37,-38.72,-46.31,-47.93
2023/04/02 04:00:21+0000,-28.39,-38.60,-38.65,-38.90,-47.17,-48.24
2023/04/02 04:01:20+0000,-27.85,-39.65,-38.56,-39.14,-46.68,-47.81
2023/04/02 04:02:12+0000,-29.16,-38.85,-38.93,-39.92,-46.48,-48.45
2023/04/02 04:03:04+0000,-29.50,-39.62,-38.83,-39.51,-46.38,-48.07
2023/04/02 04:03:57+0000,-28.09,-38.72,-39.47,-39.32,-46.31,-48.12
2023/04/02 04:04:49+0000,-28.98,-39.21,-37.98,-40.33,-46.34,-47.56
2023/04/02 04:05:41+0000,-29.26,-39.55,-38.47,-38.68,-46.46,-48.38
2023/04/02 04:06:33+0000,-29.80,-38.22,-38.41,-39.48,-46.56,-48.50
2023/04/02 04:07:25+0000,-29.34,-39.00,-38.75,-39.59,-46.41,-48.58
2023/04/02 04:08:17+0000,-28.80,-38.54,-38.56,-39.87,-46.25,-48.16
2023/04/02 04:09:09+0000,-29.47,-38.47,-38.35,-39.36,-46.07,-48.15
2023/04/02 04:10:01+0000,-29.67,-39.19,-38.49,-39.25,-46.13,-48.22
2023/04/02 04:11:00+0000,-29.89,-38.81,-38.47,-39.26,-46.40,-48.49
2023/04/02 04:11:52+0000,-28.56,-38.91,-38.13,-39.81,-46.39,-49.69
2023/04/02 04:12:44+0000,-28.95,-39.19,-39.05,-40.13,-45.92,-49.83
2023/04/02 04:13:37+0000,-29.16,-39.82,-37.42,-40.15,-46.29,-49.81
2023/04/02 04:14:29+0000,-29.15,-38.54,-38.31,-40.50,-45.85,-49.43
2023/04/02 04:15:21+0000,-29.22,-39.81,-38.07,-39.50,-45.82,-49.63
2023/04/02 04:16:13+0000,-29.74,-37.74,-38.65,-40.08,-46.34,-49.82
2023/04/02 04:17:05+0000,-28.89,-38.83,-37.58,-40.52,-46.05,-50.00
2023/04/02 04:17:57+0000,-28.53,-39.01,-38.90,-39.70,-46.72,-50.08
2023/04/02 04:18:49+0000,-29.18,-37.89,-38.18,-39.59,-47.49,-49.00
2023/04/02 04:19:41+0000,-28.65,-38.63,-38.24,-39.90,-46.51,-49.63
2023/04/02 04:20:33+0000,-30.29,-37.93,-37.57,-39.96,-47.32,-49.06
2023/04/02 04:21:32+0000,-28.68,-37.94,-38.73,-39.07,-46.95,-49.49
2023/04/02 04:22:24+0000,-29.30,-39.24,-38.64,-38.02,-46.67,-49.94
2023/04/02 04:23:16+0000,-28.93,-38.84,-38.39,-39.33,-46.61,-49.72
2023/04/02 04:24:08+0000,-29.59,-39.47,-38.58,-38.43,-46.84,-49.48
2023/04/02 04:25:00+0000,-30.94,-38.46,-39.32,-39.35,-47.21,-49.79
2023/04/02 04:25:52+0000,-29.41,-39.09,-38.43,-39.94,-46.65,-49.99
2023/04/02 04:26:44+0000,-28.84,-37.31,-39.27,-38.85,-46.65,-50.64
2023/04/02 04:27:36+0000,-29.86,-38.84,-38.48,-39.41,-47.74,-50.84
2023/04/02 04:28:28+0000,-29.38,-38.24,-39.26,-39.84,-47.65,-50.85
2023/04/02 04:29:20+0000,-29.61,-38.38,-38.48,-40.51,-46.59,-50.34
2023/04/02 04:30:12+0000,-29.60,-38.36,-38.53,-39.52,-46.88,-51.00
2023/04/02 04:31:21+0000,-27.92,-39.00,-38.74,-39.45,-46.10,-50.55
2023/04/02 04:32:13+0000,-30.07,-37.97,-39.21,-39.73,-46.46,-50.29
2023/04/02 04:33:05+0000,-29.75,-38.22,-38.78,-39.38,-46.15,-50.26
2023/04/02 04:33:57+0000,-29.89,-37.70,-38.77,-39.19,-45.91,-50.34
2023/04/02 04:34:49+0000,-30.49,-37.48,-38.85,-39.98,-46.45,-50.53
2023/04/02 04:35:41+0000,-30.00,-38.26,-38.65,-39.02,-46.16,-50.27
2023/04/02 04:36:33+0000,-29.90,-37.92,-38.62,-39.53,-46.07,-50.85
2023/04/02 04:37:25+0000,-29.28,-38.38,-39.02,-39.18,-46.42,-50.80
2023/04/02 04:38:17+0000,-30.29,-38.06,-38.48,-38.43,-46.22,-50.07
2023/04/02 04:39:09+0000,-30.30,-37.74,-38.36,-38.90,-46.07,-50.56
2023/04/02 04:40:01+0000,-30.76,-38.14,-38.61,-40.01,-45.56,-50.62
2023/04/02 04:41:00+0000,-30.07,-37.87,-38.37,-39.76,-45.86,-50.04
2023/04/02 04:41:52+0000,-29.17,-39.05,-38.41,-39.68,-46.27,-50.42
2023/04/02 04:42:44+0000,-30.09,-37.78,-39.45,-39.14,-46.35,-50.61
2023/04/02 04:43:36+0000,-29.64,-38.08,-38.15,-38.87,-45.56,-50.61
2023/04/02 04:44:28+0000,-28.40,-38.04,-39.29,-39.47,-45.37,-49.44
2023/04/02 04:45:20+0000,-28.60,-37.50,-39.00,-40.01,-45.27,-50.34
2023/04/02 04:46:12+0000,-29.28,-37.12,-38.09,-38.17,-46.53,-50.89